[[{"header":{"parameterUnit":"m.s-1","parameterCategory":2,"la1":30.2992,"la2":30.254,"lo1":-89.0895,"lo2":-89.0443,"dy":0.0025,"dx":0.0025,"nx":19,"ny":19,"refTime":"2026-04-20T09:00:00:Z","depth":"0","parameterNumber":2,"parameterNumberName":"U-component_of_CURRENTS"},"data":[0,0,0,0.2551,0.2552,0.2607,0.2608,0.2676,0.2676,0,0,0,0,0,0,0,0,0,0,0,0.2528,0.2529,0.2551,0.2553,0.2607,0.2608,0.2675,0.2676,0,0,0,0,0,0,0,0,0,0,0,0.2528,0.2529,0.2529,0.2553,0.2607,0.2608,0.2675,0.2633,0,0,0,0,0,0,0,0,0,0,0.2579,0.2554,0.2529,0.2529,0.2553,0.2607,0.2608,0.2631,0.2636,0.2652,0,0.2663,0,0.2676,0.2681,0.2681,0,0,0,0.2547,0.255,0.2574,0.2529,0.2554,0.2607,0.2581,0.2634,0.2639,0.2658,0.2665,0.2667,0.2677,0.2682,0.2682,0.2782,0.2782,0,0,0.2544,0.2529,0.257,0.2577,0.2573,0.2579,0.2583,0.2637,0.2639,0.2665,0.2669,0.2679,0.2682,0.2683,0.2781,0.2782,0,0,0,0.2539,0.2527,0.255,0.2574,0.2588,0.2581,0.2585,0.2636,0.2647,0.267,0.2679,0.2683,0.2684,0.2781,0.2782,0.2808,0,0,0,0.2537,0.2525,0.2548,0.2539,0.2587,0.2611,0.2583,0.2642,0.2649,0.2679,0.2683,0.2684,0.278,0.2781,0.2806,0.2811,0,0,0,0.2525,0.2524,0.2533,0.2538,0.2566,0.2611,0.2624,0.2644,0.2656,0.2682,0.2684,0.278,0.2781,0.2804,0.2808,0.2847,0,0,0,0.2503,0.252,0.2533,0.2558,0.2566,0.2619,0.2623,0.2661,0.2684,0.2683,0.278,0.2782,0.2803,0.2807,0.2845,0.2778,0.2781,0,0,0.2513,0.2521,0.2538,0.2551,0.2597,0.261,0.2668,0.2699,0.271,0.276,0.2762,0.2806,0.2808,0.2846,0.2851,0.2852,0,0,0,0.2534,0.254,0.256,0.2588,0.2631,0.2673,0.2706,0.2732,0.2784,0.2732,0.2825,0.2825,0.2849,0.2805,0.2807,0.2604,0.2787,0.2787,0.2787,0.2502,0.2536,0.2562,0.261,0.2649,0.272,0.2766,0.2809,0.2816,0.2849,0.2861,0.2926,0.288,0.288,0.2672,0.288,0.288,0.2881,0.2881,0.2495,0.2503,0.2554,0.2588,0.2653,0.2705,0.2811,0.2842,0.2931,0.2911,0.2933,0.2851,0.2883,0.2661,0.2883,0.2882,0.2882,0.2882,0.2882,0.2451,0.2461,0.2487,0.2541,0.2604,0.2692,0.2781,0.2877,0.2936,0.2981,0.2939,0.2937,0.2729,0.2994,0.2994,0.2994,0.2994,0.2995,0.2995,0.2389,0.242,0.243,0.2498,0.2529,0.2615,0.2773,0.2844,0.2931,0.2964,0.2963,0.2721,0.296,0.2941,0.2998,0.2997,0.2997,0.2997,0.2996,0.2336,0.2352,0.2361,0.2384,0.2459,0.2492,0.2662,0.2788,0.2889,0.291,0.2693,0.2961,0.2947,0.2944,0.2926,0.2975,0.2975,0.2975,0.2975,0.2287,0.2303,0.2282,0.2294,0.2342,0.2426,0.2438,0.2543,0.2595,0.2543,0.257,0.2488,0.2498,0.2453,0.2461,0.2431,0.2354,0.2353,0.2352,0.2252,0.2254,0.2208,0.2224,0.227,0.2317,0.2254,0.2179,0.2232,0.2307,0.23,0.2327,0.2187,0.222,0.2135,0.2163,0.211,0,0]},{"header":{"parameterUnit":"m.s-1","parameterCategory":2,"la1":30.2992,"la2":30.254,"lo1":-89.0895,"lo2":-89.0443,"dy":0.0025,"dx":0.0025,"nx":19,"ny":19,"refTime":"2026-04-20T09:00:00:Z","depth":"0","parameterNumber":3,"parameterNumberName":"V-component_of_CURRENTS"},"data":[0,0,0,-0.0063,-0.0063,-0.0078,-0.0078,-0.0113,-0.0113,0,0,0,0,0,0,0,0,0,0,0,-0.0059,-0.0059,-0.0063,-0.0063,-0.0078,-0.0078,-0.0113,-0.0113,0,0,0,0,0,0,0,0,0,0,0,-0.0059,-0.0059,-0.0059,-0.0063,-0.0078,-0.0078,-0.0113,-0.0101,0,0,0,0,0,0,0,0,0,0,-0.0085,-0.0077,-0.0059,-0.0059,-0.0063,-0.0078,-0.0078,-0.01,-0.0101,-0.0107,0,-0.0102,0,-0.0102,-0.0115,-0.0115,0,0,0,-0.0075,-0.0075,-0.0075,-0.0059,-0.0063,-0.0078,-0.0074,-0.0101,-0.0102,-0.0109,-0.0102,-0.0103,-0.0103,-0.0115,-0.0115,-0.0097,-0.0096,0,0,-0.0074,-0.0069,-0.0074,-0.0076,-0.0056,-0.0074,-0.0075,-0.0102,-0.0102,-0.0102,-0.0104,-0.0104,-0.0115,-0.0116,-0.0097,-0.0096,0,0,0,-0.0063,-0.0068,-0.0068,-0.0075,-0.0073,-0.0074,-0.0075,-0.0101,-0.0099,-0.0104,-0.0104,-0.0116,-0.0116,-0.0097,-0.0097,-0.0021,0,0,0,-0.0063,-0.0061,-0.0067,-0.0065,-0.0072,-0.0085,-0.0073,-0.0098,-0.01,-0.0104,-0.0116,-0.0116,-0.0098,-0.0097,-0.0024,0.004,0,0,0,-0.006,-0.0061,-0.0059,-0.0065,-0.0065,-0.0084,-0.0085,-0.0098,-0.01,-0.0115,-0.0116,-0.0098,-0.0097,-0.0027,0.0035,0.0083,0,0,0,-0.0061,-0.0038,-0.0058,-0.0032,-0.0065,-0.0044,-0.0085,-0.0082,-0.0091,-0.0116,-0.0098,-0.0097,-0.0027,0.0031,0.008,0.0212,0.0239,0,0,-0.0028,-0.0034,-0.0017,-0.0035,0.0003,-0.0044,-0.0006,-0.004,-0.008,-0.0093,-0.0093,-0.0023,0.0034,0.0082,0.0264,0.0291,0,0,0,-0.0004,0.0014,0.002,0.0035,0.0033,0.0044,0.0008,-0.0002,-0.0018,-0.0078,-0.0026,0.0009,0.0036,0.0108,0.0129,0.008,-0.0093,-0.0093,-0.0093,0.0055,0.0057,0.0096,0.0103,0.0111,0.0104,0.0116,0.0093,0.0036,0.0042,0.0067,0.0156,0.0233,0.025,0.0197,0.0047,0.0047,0.0047,0.0047,0.0127,0.0155,0.0159,0.0195,0.0198,0.0221,0.0223,0.0196,0.0214,0.0144,0.0165,0.0181,0.0278,0.0213,0.0052,0.0051,0.0051,0.005,0.005,0.0172,0.0188,0.0203,0.0257,0.0303,0.0307,0.0393,0.0359,0.0304,0.0329,0.0382,0.0382,0.0328,0.0323,0.0323,0.0324,0.0324,0.0325,0.0325,0.021,0.0229,0.0282,0.0331,0.0376,0.0449,0.0497,0.0535,0.0548,0.0504,0.0504,0.037,0.0241,0.0234,0.0333,0.0331,0.033,0.033,0.0329,0.0271,0.0274,0.036,0.041,0.053,0.0667,0.0701,0.082,0.0815,0.0847,0.0653,0.0591,0.0585,0.0568,0.057,0.0749,0.0749,0.0749,0.075,0.0309,0.0318,0.0437,0.0536,0.0665,0.0772,0.1007,0.1093,0.0994,0.0918,0.0794,0.0744,0.0729,0.0725,0.0705,0.0705,0.0915,0.0915,0.0915,0.0356,0.0388,0.0481,0.0575,0.0723,0.0908,0.1162,0.1327,0.1134,0.0907,0.07,0.0693,0.0596,0.0577,0.0545,0.0521,0.0512,0,0]}],[{"header":{"parameterUnit":"m.s-1","parameterCategory":2,"la1":30.2992,"la2":30.254,"lo1":-89.0895,"lo2":-89.0443,"dy":0.0025,"dx":0.0025,"nx":19,"ny":19,"refTime":"2026-04-20T09:00:00:Z","depth":"2","parameterNumber":2,"parameterNumberName":"U-component_of_CURRENTS"},"data":[0,0,0,0.2058,0.2059,0.2123,0.2123,0.218,0.2181,0,0,0,0,0,0,0,0,0,0,0,0.2021,0.2022,0.2057,0.2059,0.2123,0.2123,0.218,0.2181,0,0,0,0,0,0,0,0,0,0,0,0.2021,0.2021,0.2022,0.206,0.2123,0.2123,0.218,0.2135,0,0,0,0,0,0,0,0,0,0,0.2076,0.2061,0.2021,0.2022,0.206,0.2122,0.2123,0.2133,0.2138,0.2148,0,0.2157,0,0.2182,0.2185,0.2185,0,0,0,0.2048,0.2057,0.2068,0.2022,0.2061,0.2122,0.2091,0.2136,0.2141,0.2155,0.2158,0.2161,0.2183,0.2185,0.2186,0.2285,0.2285,0,0,0.2045,0.204,0.2064,0.2071,0.2076,0.2089,0.2093,0.2139,0.2148,0.2159,0.2163,0.2184,0.2186,0.2186,0.2284,0.2285,0,0,0,0.2042,0.2037,0.2047,0.2068,0.2088,0.2091,0.2096,0.2146,0.2147,0.2164,0.2185,0.2186,0.2187,0.2284,0.2285,0.2301,0,0,0,0.204,0.2037,0.2045,0.2044,0.2087,0.2125,0.2101,0.2143,0.215,0.2184,0.2186,0.2188,0.2283,0.2284,0.2299,0.229,0,0,0,0.2019,0.2035,0.204,0.2043,0.2077,0.2125,0.2129,0.2145,0.2164,0.2185,0.2188,0.2283,0.2284,0.2297,0.2288,0.233,0,0,0,0.2013,0.2025,0.204,0.2064,0.2076,0.2116,0.2129,0.2169,0.2189,0.2187,0.2283,0.2284,0.2297,0.2287,0.2328,0.2202,0.2199,0,0,0.2022,0.2026,0.204,0.2055,0.2082,0.2107,0.2163,0.2198,0.2215,0.2262,0.2265,0.23,0.2288,0.2329,0.2284,0.2279,0,0,0,0.204,0.2043,0.2055,0.2079,0.211,0.2152,0.2198,0.2224,0.2281,0.2238,0.2324,0.2316,0.2342,0.2263,0.226,0.2291,0.2291,0.2291,0.2291,0.2028,0.2046,0.2063,0.2092,0.2125,0.2193,0.2236,0.2286,0.2303,0.2342,0.2349,0.2414,0.2331,0.2327,0.2379,0.2379,0.2379,0.238,0.238,0.2022,0.2023,0.206,0.2083,0.2134,0.2192,0.2282,0.2319,0.2399,0.2389,0.2415,0.2307,0.2324,0.2381,0.2381,0.2381,0.2381,0.238,0.238,0.1988,0.1991,0.2015,0.2052,0.2114,0.2199,0.2269,0.2352,0.2406,0.2437,0.2375,0.2372,0.2412,0.2466,0.2466,0.2466,0.2466,0.2466,0.2467,0.1938,0.1961,0.1973,0.2025,0.206,0.2138,0.2271,0.2323,0.237,0.2378,0.2377,0.2443,0.2441,0.2418,0.2469,0.2469,0.2468,0.2468,0.2468,0.1887,0.1903,0.1907,0.1931,0.1995,0.1993,0.2143,0.2193,0.2281,0.2262,0.235,0.2352,0.2335,0.2335,0.2311,0.2332,0.2332,0.2332,0.2331,0.1844,0.1857,0.184,0.1844,0.187,0.1913,0.1853,0.1891,0.2031,0.2068,0.2079,0.2012,0.2024,0.1986,0.1995,0.1962,0.1893,0.1892,0.1891,0.1812,0.1812,0.1772,0.1773,0.1797,0.1775,0.164,0.1522,0.1633,0.1873,0.1998,0.2303,0.2233,0.224,0.2205,0.221,0.2167,0,0]},{"header":{"parameterUnit":"m.s-1","parameterCategory":2,"la1":30.2992,"la2":30.254,"lo1":-89.0895,"lo2":-89.0443,"dy":0.0025,"dx":0.0025,"nx":19,"ny":19,"refTime":"2026-04-20T09:00:00:Z","depth":"2","parameterNumber":3,"parameterNumberName":"V-component_of_CURRENTS"},"data":[0,0,0,0.0227,0.0227,0.0234,0.0234,0.0235,0.0235,0,0,0,0,0,0,0,0,0,0,0,0.023,0.023,0.0227,0.0227,0.0234,0.0234,0.0235,0.0235,0,0,0,0,0,0,0,0,0,0,0,0.023,0.023,0.023,0.0227,0.0234,0.0234,0.0235,0.0232,0,0,0,0,0,0,0,0,0,0,0.0226,0.0224,0.023,0.023,0.0227,0.0234,0.0234,0.0232,0.0232,0.0229,0,0.0235,0,0.0232,0.0235,0.0235,0,0,0,0.0227,0.0223,0.023,0.023,0.0227,0.0234,0.0231,0.0232,0.0232,0.023,0.0235,0.0235,0.0232,0.0235,0.0235,0.0262,0.0262,0,0,0.0227,0.0224,0.023,0.0231,0.0235,0.023,0.0231,0.0232,0.0231,0.0235,0.0235,0.0232,0.0235,0.0235,0.0262,0.0262,0,0,0,0.0225,0.0224,0.0231,0.0231,0.0231,0.0231,0.0231,0.0231,0.0236,0.0235,0.0232,0.0235,0.0235,0.0261,0.0262,0.0328,0,0,0,0.0225,0.0223,0.0231,0.0229,0.0231,0.0231,0.023,0.0236,0.0235,0.0232,0.0235,0.0234,0.0261,0.0262,0.0325,0.0378,0,0,0,0.0228,0.0223,0.0227,0.0229,0.0232,0.0231,0.0235,0.0236,0.0234,0.0235,0.0234,0.0261,0.0262,0.0323,0.0373,0.0416,0,0,0,0.0221,0.0244,0.0227,0.0255,0.0232,0.0267,0.0235,0.025,0.0255,0.0235,0.0261,0.0262,0.0323,0.037,0.0413,0.0461,0.048,0,0,0.0251,0.0248,0.0267,0.0252,0.0301,0.0265,0.0312,0.0297,0.0264,0.0259,0.026,0.0326,0.0373,0.0415,0.0505,0.0522,0,0,0,0.0277,0.0295,0.0307,0.0327,0.0338,0.0361,0.0338,0.0331,0.0324,0.0269,0.0323,0.0351,0.0375,0.0398,0.0411,0.0265,0.0265,0.0265,0.0265,0.0316,0.0331,0.0375,0.0398,0.0419,0.0424,0.044,0.0423,0.0376,0.038,0.0401,0.0478,0.0502,0.0512,0.0384,0.0384,0.0385,0.0385,0.0385,0.0382,0.0416,0.0434,0.0481,0.0499,0.0533,0.0542,0.0516,0.0527,0.0468,0.0487,0.0462,0.0532,0.039,0.0389,0.0388,0.0388,0.0387,0.0387,0.0417,0.0438,0.0461,0.053,0.059,0.061,0.0688,0.0657,0.0605,0.0622,0.0627,0.0626,0.0531,0.0621,0.0621,0.0621,0.0622,0.0622,0.0622,0.0444,0.0472,0.0526,0.0593,0.0648,0.0727,0.0776,0.0797,0.0778,0.0724,0.0724,0.0558,0.055,0.0545,0.0629,0.0628,0.0627,0.0626,0.0626,0.0499,0.0504,0.0591,0.0647,0.0784,0.0905,0.0938,0.0985,0.0971,0.0965,0.0777,0.0771,0.0759,0.0747,0.0747,0.0878,0.0878,0.0878,0.0878,0.0529,0.054,0.0653,0.0757,0.0892,0.0993,0.113,0.1119,0.1026,0.0939,0.0936,0.0883,0.0873,0.0862,0.0847,0.0846,0.1004,0.1004,0.1004,0.0569,0.0599,0.0682,0.0781,0.0941,0.1095,0.1214,0.117,0.1014,0.1006,0.0921,0.0894,0.0806,0.0793,0.0763,0.0745,0.0737,0,0]}],[{"header":{"parameterUnit":"m.s-1","parameterCategory":2,"la1":30.2992,"la2":30.254,"lo1":-89.0895,"lo2":-89.0443,"dy":0.0025,"dx":0.0025,"nx":19,"ny":19,"refTime":"2026-04-20T09:00:00:Z","depth":"4","parameterNumber":2,"parameterNumberName":"U-component_of_CURRENTS"},"data":[0,0,0,0.1195,0.1197,0.1292,0.1292,0.1375,0.1375,0,0,0,0,0,0,0,0,0,0,0,0.1171,0.1172,0.1195,0.1197,0.1292,0.1292,0.1375,0.1375,0,0,0,0,0,0,0,0,0,0,0,0.1171,0.1172,0.1173,0.1198,0.1292,0.1292,0.1375,0.1313,0,0,0,0,0,0,0,0,0,0,0.1226,0.122,0.1172,0.1173,0.1198,0.1292,0.1292,0.1311,0.1317,0.132,0,0.1345,0,0.1357,0.138,0.138,0,0,0,0.1199,0.1215,0.1228,0.1173,0.1199,0.1291,0.125,0.1314,0.1322,0.1328,0.1346,0.1349,0.1358,0.138,0.1381,0.145,0.145,0,0,0.1194,0.1198,0.1223,0.1233,0.1236,0.1247,0.1253,0.1319,0.1338,0.1346,0.1351,0.136,0.1381,0.1381,0.145,0.145,0,0,0,0.1178,0.1194,0.1207,0.1229,0.1247,0.1249,0.1256,0.1336,0.1337,0.1352,0.1361,0.1381,0.1382,0.145,0.145,0.1497,0,0,0,0.1175,0.1184,0.1205,0.1209,0.1246,0.13,0.1271,0.1333,0.134,0.136,0.1381,0.1383,0.1449,0.145,0.1496,0.1495,0,0,0,0.1165,0.1183,0.1195,0.1209,0.1247,0.1299,0.1306,0.1335,0.1345,0.138,0.1383,0.1449,0.145,0.1494,0.1492,0.1537,0,0,0,0.1162,0.1178,0.1196,0.122,0.1246,0.1285,0.1306,0.1354,0.1386,0.1381,0.1449,0.145,0.1493,0.1491,0.1535,0.1324,0,0,0,0.117,0.118,0.119,0.1207,0.1235,0.1271,0.1322,0.1379,0.1394,0.1424,0.1427,0.1496,0.1492,0.1537,0.1363,0,0,0,0,0.1183,0.1192,0.1205,0.1232,0.1263,0.1316,0.1365,0.1397,0.1461,0.1416,0.1496,0.1491,0.1518,0.1389,0.1453,0.1453,0.1453,0.1453,0.1453,0.119,0.1198,0.1216,0.124,0.1279,0.1353,0.1403,0.1454,0.1473,0.1513,0.153,0.1593,0.1458,0.1542,0.1542,0.1542,0.1542,0.1543,0.1543,0.1179,0.1177,0.1218,0.1242,0.1302,0.1362,0.1453,0.1497,0.1576,0.1568,0.1594,0.1447,0.1547,0.1546,0.1546,0.1545,0.1545,0.1544,0.1544,0.1155,0.1153,0.1186,0.1231,0.1305,0.1389,0.1459,0.1546,0.1609,0.1642,0.1526,0.1625,0.1621,0.1679,0.1679,0.168,0.168,0.168,0.168,0.1109,0.1135,0.1159,0.1222,0.1265,0.135,0.1481,0.1525,0.1615,0.154,0.1668,0.1639,0.1634,0.1628,0.1683,0.1683,0.1682,0.1682,0.1682,0.1055,0.109,0.1108,0.1144,0.1213,0.125,0.1401,0.1441,0.1483,0.1466,0.1488,0.1496,0.1459,0.1459,0.1445,0.1448,0.1446,0.1443,0,0.1023,0.1038,0.1055,0.1069,0.1085,0.1172,0.1169,0.1246,0.1328,0.1278,0.1491,0.1513,0.1518,0.1474,0.147,0.1452,0,0,0,0.0992,0.1003,0.0992,0.1008,0.1004,0.1039,0.1154,0.1135,0.1313,0.1291,0.138,0.1397,0.1568,0.1693,0.1656,0.1651,0.1639,0,0]},{"header":{"parameterUnit":"m.s-1","parameterCategory":2,"la1":30.2992,"la2":30.254,"lo1":-89.0895,"lo2":-89.0443,"dy":0.0025,"dx":0.0025,"nx":19,"ny":19,"refTime":"2026-04-20T09:00:00:Z","depth":"4","parameterNumber":3,"parameterNumberName":"V-component_of_CURRENTS"},"data":[0,0,0,0.0273,0.0273,0.0304,0.0304,0.033,0.033,0,0,0,0,0,0,0,0,0,0,0,0.0266,0.0266,0.0273,0.0273,0.0304,0.0304,0.033,0.033,0,0,0,0,0,0,0,0,0,0,0,0.0266,0.0266,0.0266,0.0274,0.0304,0.0304,0.033,0.031,0,0,0,0,0,0,0,0,0,0,0.0282,0.0275,0.0266,0.0266,0.0274,0.0304,0.0304,0.0309,0.0311,0.0312,0,0.0321,0,0.0325,0.0331,0.0331,0,0,0,0.0273,0.0273,0.0284,0.0267,0.0274,0.0304,0.029,0.031,0.0313,0.0314,0.0322,0.0323,0.0325,0.0331,0.0331,0.0372,0.0373,0,0,0.0272,0.0268,0.0282,0.0285,0.0288,0.0289,0.0291,0.0312,0.0315,0.0322,0.0323,0.0325,0.0332,0.0332,0.0372,0.0373,0,0,0,0.0267,0.0267,0.0277,0.0284,0.029,0.029,0.0292,0.0314,0.0318,0.0323,0.0326,0.0332,0.0332,0.0372,0.0372,0.0416,0,0,0,0.0266,0.0264,0.0276,0.0274,0.029,0.0303,0.0294,0.0317,0.0319,0.0326,0.0332,0.0332,0.0372,0.0372,0.0414,0.0441,0,0,0,0.0263,0.0264,0.027,0.0274,0.0287,0.0303,0.0309,0.0318,0.0321,0.0331,0.0332,0.0371,0.0372,0.0413,0.0438,0.0464,0,0,0,0.0255,0.0275,0.027,0.0297,0.0287,0.0325,0.0309,0.0333,0.0346,0.0332,0.0372,0.0372,0.0412,0.0436,0.0462,0.0444,0,0,0,0.0277,0.0278,0.0296,0.0292,0.0337,0.032,0.0366,0.0371,0.0355,0.0363,0.0364,0.0415,0.0438,0.0464,0.0485,0,0,0,0,0.0302,0.0317,0.033,0.0354,0.0371,0.0398,0.0397,0.0395,0.0404,0.0365,0.0417,0.043,0.0445,0.0428,0.0376,0.0376,0.0375,0.0375,0.0375,0.0325,0.0343,0.0383,0.041,0.0434,0.0452,0.0468,0.0464,0.0442,0.0449,0.0467,0.0519,0.0503,0.0463,0.0463,0.0464,0.0464,0.0464,0.0464,0.0371,0.0399,0.0426,0.0471,0.0497,0.0534,0.0546,0.0534,0.0543,0.0509,0.0521,0.0477,0.0468,0.0467,0.0467,0.0466,0.0466,0.0466,0.0465,0.0388,0.0406,0.0436,0.0504,0.0565,0.0595,0.0649,0.0633,0.0595,0.0604,0.058,0.0553,0.0548,0.0608,0.0608,0.0609,0.0609,0.0609,0.0609,0.0393,0.0426,0.0477,0.0547,0.0602,0.0671,0.0711,0.0714,0.068,0.0637,0.062,0.0568,0.0563,0.0556,0.0613,0.0612,0.0612,0.0611,0.0611,0.0421,0.0434,0.0508,0.0564,0.0688,0.0737,0.0781,0.0764,0.0763,0.0722,0.0649,0.0646,0.063,0.0623,0.0617,0.0695,0.0695,0.0695,0,0.0432,0.0446,0.0541,0.063,0.0727,0.078,0.08,0.0798,0.0735,0.0717,0.0746,0.0665,0.0662,0.0643,0.0638,0.0632,0,0,0,0.0454,0.0479,0.0544,0.0632,0.0743,0.078,0.0806,0.0786,0.0745,0.0731,0.0695,0.0695,0.0673,0.0624,0.0592,0.0586,0.0573,0,0]}]]